Date String (YYYY-MM-DD hh:mm:ss) UTC,Instrument flags,absolute air pressure of the measurement (hPa),sample flow rate (lpm),inlet stack bypass flow (lpm),air temperature of the measurement (°C),ambient temperature measured by the external sensor (°C),aerosol sample conditioner tube jacket temperature (°C),OPC LED temperature (°C),internal box temperature (°C),relative humidity of the measurement (%),span deviation,mass concentration of particles derived from Lorenz-Mie calculation of OPC scattering (μg/m³),mass concentration of particles derived from Lorenz-Mie calculation of OPC scattering (μg/m³),mass concentration of particles derived from Lorenz-Mie calculation of OPC scattering (μg/m³)
DateTimeUTC,F1_M11,P_M11,Q1_M11,Q2_M11,T1_M11,T2_M11,T3_M11,T4_M11,T5_M11,U1_M11,ZSPAN_M11,X2_M11,X0_M11,X1_M11
2024-05-23 00:00:00,SystemResetWarning,0822.1,5.00,000.00,031.2,030.5,000.0,039.4,032.8,006.8,0000.0,0002.61,0005.13,0001.98
2024-05-23 00:01:00,SystemResetWarning,0822.1,5.00,000.00,031.2,030.5,000.0,039.4,032.9,006.8,0000.0,0002.60,0004.71,0001.96
2024-05-23 00:02:00,SystemResetWarning,0822.1,4.99,000.00,031.2,030.6,000.0,039.4,032.9,007.0,0000.0,0002.61,0004.17,0001.95
2024-05-23 00:03:00,SystemResetWarning,0822.1,5.00,000.00,031.2,030.6,000.0,039.4,032.9,007.1,0000.0,0002.61,0004.37,0001.94
2024-05-23 00:04:00,SystemResetWarning,0822.1,4.99,000.00,031.2,030.6,000.0,039.4,032.9,006.8,0000.0,0002.63,0004.41,0001.94
2024-05-23 00:05:00,SystemResetWarning,0822.1,5.00,000.00,031.2,030.6,000.0,039.5,032.9,006.8,0000.0,0002.61,0004.39,0001.94
2024-05-23 00:06:00,SystemResetWarning,0822.1,5.00,000.00,031.2,030.6,000.0,039.5,032.9,007.1,0000.0,0002.56,0004.31,0001.94
2024-05-23 00:07:00,SystemResetWarning,0822.1,5.00,000.00,031.3,030.6,000.0,039.5,032.9,007.3,0000.0,0002.59,0004.38,0001.95
2024-05-23 00:08:00,SystemResetWarning,0822.1,5.01,000.00,031.3,030.6,000.0,039.5,032.9,007.0,0000.0,0002.60,0004.39,0001.96
2024-05-23 00:09:00,SystemResetWarning,0822.1,5.01,000.00,031.3,030.6,000.0,039.5,032.9,006.9,0000.0,0002.55,0004.46,0001.94
2024-05-23 00:10:00,SystemResetWarning,0822.1,5.00,000.00,031.3,030.6,000.0,039.5,032.9,007.0,0000.0,0002.53,0004.47,0001.95
2024-05-23 00:11:00,SystemResetWarning,0822.1,4.99,000.00,031.3,030.6,000.0,039.5,033.0,007.0,0000.0,0002.59,0004.37,0001.96
2024-05-23 00:12:00,SystemResetWarning,0822.1,5.00,000.00,031.3,030.6,000.0,039.5,033.0,007.6,0000.0,0002.62,0004.47,0001.97
2024-05-23 00:13:00,SystemResetWarning,0822.1,5.02,000.00,031.3,030.6,000.0,039.5,033.0,007.4,0000.0,0002.60,0004.44,0001.99
2024-05-23 00:14:00,SystemResetWarning,0822.1,4.99,000.00,031.3,030.6,000.0,039.6,032.9,007.4,0000.0,0002.62,0004.22,0002.01
2024-05-23 00:15:00,SystemResetWarning,0822.1,4.99,000.00,031.3,030.6,000.0,039.6,033.0,007.2,0000.0,0002.61,0004.18,0002.01
2024-05-23 00:16:00,SystemResetWarning,0822.1,5.00,000.00,031.3,030.6,000.0,039.6,033.0,007.3,0000.0,0002.59,0004.08,0002.01
2024-05-23 00:17:00,SystemResetWarning,0822.1,5.01,000.00,031.3,030.6,000.0,039.6,033.0,007.1,0000.0,0002.59,0004.18,0002.02
2024-05-23 00:18:00,SystemResetWarning,0822.2,5.01,000.00,031.3,030.7,000.0,039.6,033.0,006.9,0000.0,0002.56,0004.20,0002.01
2024-05-23 00:19:00,SystemResetWarning,0822.2,5.00,000.00,031.3,030.7,000.0,039.6,033.0,007.0,0000.0,0002.53,0005.30,0002.01
2024-05-23 00:20:00,SystemResetWarning,0822.2,4.98,000.00,031.4,030.7,000.0,039.6,033.0,007.4,0000.0,0002.50,0005.05,0002.02
2024-05-23 00:21:00,SystemResetWarning,0822.2,5.00,000.00,031.4,030.7,000.0,039.6,033.0,007.6,0000.0,0002.49,0004.98,0002.02
2024-05-23 00:22:00,SystemResetWarning,0822.1,5.00,000.00,031.4,030.7,000.0,039.6,033.0,007.3,0000.0,0002.45,0005.80,0002.01
2024-05-23 00:23:00,SystemResetWarning,0822.1,5.00,000.00,031.4,030.7,000.0,039.6,033.0,007.2,0000.0,0002.43,0006.01,0002.02
2024-05-23 00:24:00,SystemResetWarning,0822.1,5.01,000.00,031.4,030.7,000.0,039.6,033.0,007.1,0000.0,0002.45,0006.25,0002.01
2024-05-23 00:25:00,SystemResetWarning,0822.1,5.00,000.00,031.4,030.7,000.0,039.7,033.0,007.2,0000.0,0002.51,0006.40,0002.00
2024-05-23 00:26:00,SystemResetWarning,0822.1,5.00,000.00,031.4,030.7,000.0,039.7,033.1,006.9,0000.0,0002.55,0006.49,0001.98
2024-05-23 00:27:00,SystemResetWarning,0822.1,5.00,000.00,031.4,030.7,000.0,039.7,033.1,007.0,0000.0,0002.59,0006.65,0001.99
2024-05-23 00:28:00,SystemResetWarning,0822.1,4.99,000.00,031.4,030.7,000.0,039.7,033.0,007.5,0000.0,0002.61,0006.63,0001.99
2024-05-23 00:29:00,SystemResetWarning,0822.1,5.00,000.00,031.4,030.7,000.0,039.7,033.1,007.7,0000.0,0002.64,0006.56,0001.99
2024-05-23 00:30:00,SystemResetWarning,0822.1,5.01,000.00,031.5,030.8,000.0,039.7,033.1,007.8,0000.0,0002.65,0005.53,0001.98
2024-05-23 00:31:00,SystemResetWarning,0822.0,5.01,000.00,031.5,030.8,000.0,039.7,033.1,007.5,0000.0,0002.68,0005.55,0001.98
2024-05-23 00:32:00,SystemResetWarning,0822.1,5.01,000.00,031.5,030.8,000.0,039.7,033.1,007.1,0000.0,0002.75,0006.06,0002.00
2024-05-23 00:33:00,SystemResetWarning,0822.1,5.00,000.00,031.5,030.8,000.0,039.7,033.1,007.2,0000.0,0002.84,0005.60,0002.02
2024-05-23 00:34:00,SystemResetWarning,0822.1,4.99,000.00,031.5,030.8,000.0,039.7,033.1,007.1,0000.0,0002.87,0005.66,0002.02
2024-05-23 00:35:00,SystemResetWarning,0822.1,4.98,000.00,031.5,030.8,000.0,039.8,033.1,007.4,0000.0,0002.92,0007.52,0002.02
2024-05-23 00:36:00,SystemResetWarning,0822.1,5.01,000.00,031.5,030.8,000.0,039.8,033.1,007.4,0000.0,0002.96,0007.81,0002.04
2024-05-23 00:37:00,SystemResetWarning,0822.1,5.00,000.00,031.5,030.8,000.0,039.8,033.1,007.2,0000.0,0003.01,0007.95,0002.06
2024-05-23 00:38:00,SystemResetWarning,0822.1,4.99,000.00,031.5,030.8,000.0,039.8,033.1,007.5,0000.0,0003.00,0007.95,0002.06
2024-05-23 00:39:00,SystemResetWarning,0822.2,5.00,000.00,031.5,030.8,000.0,039.8,033.1,007.4,0000.0,0002.97,0007.91,0002.05
2024-05-23 00:40:00,SystemResetWarning,0822.2,5.01,000.00,031.5,030.8,000.0,039.8,033.1,007.4,0000.0,0002.96,0007.88,0002.05
2024-05-23 00:41:00,SystemResetWarning,0822.1,5.00,000.00,031.5,030.8,000.0,039.8,033.1,007.3,0000.0,0002.97,0007.93,0002.06
2024-05-23 00:42:00,SystemResetWarning,0822.2,5.00,000.00,031.6,030.8,000.0,039.8,033.2,007.5,0000.0,0003.04,0008.06,0002.08
2024-05-23 00:43:00,SystemResetWarning,0822.1,5.00,000.00,031.6,030.8,000.0,039.8,033.2,007.8,0000.0,0003.02,0007.93,0002.06
2024-05-23 00:44:00,SystemResetWarning,0822.1,4.99,000.00,031.6,030.8,000.0,039.8,033.2,007.7,0000.0,0002.95,0007.84,0002.04
2024-05-23 00:45:00,SystemResetWarning,0822.1,5.00,000.00,031.6,030.8,000.0,039.8,033.2,007.6,0000.0,0002.93,0007.82,0002.03
2024-05-23 00:46:00,SystemResetWarning,0822.1,5.01,000.00,031.6,030.9,000.0,039.8,033.1,007.4,0000.0,0002.93,0006.10,0002.03
2024-05-23 00:47:00,SystemResetWarning,0822.0,5.00,000.00,031.6,030.9,000.0,039.8,033.2,007.0,0000.0,0002.86,0005.48,0002.02
2024-05-23 00:48:00,SystemResetWarning,0822.0,5.00,000.00,031.6,030.9,000.0,039.9,033.2,007.0,0000.0,0002.81,0005.25,0002.01
2024-05-23 00:49:00,SystemResetWarning,0822.0,4.99,000.00,031.6,030.9,000.0,039.9,033.2,007.1,0000.0,0002.83,0005.42,0002.01
2024-05-23 00:50:00,SystemResetWarning,0822.1,5.00,000.00,031.6,030.9,000.0,039.9,033.2,007.3,0000.0,0002.88,0005.74,0002.02
2024-05-23 00:51:00,SystemResetWarning,0822.1,5.00,000.00,031.6,030.9,000.0,039.9,033.2,007.4,0000.0,0002.95,0005.99,0002.00
2024-05-23 00:52:00,SystemResetWarning,0822.1,4.99,000.00,031.6,030.9,000.0,039.9,033.2,007.3,0000.0,0003.01,0006.09,0002.01
2024-05-23 00:53:00,SystemResetWarning,0822.1,4.99,000.00,031.6,030.9,000.0,039.9,033.2,007.3,0000.0,0003.01,0005.98,0002.01
2024-05-23 00:54:00,SystemResetWarning,0822.1,5.00,000.00,031.6,030.9,000.0,039.9,033.2,008.1,0000.0,0003.03,0006.02,0002.03
2024-05-23 00:55:00,SystemResetWarning,0822.1,5.01,000.00,031.7,030.9,000.0,039.9,033.2,008.1,0000.0,0003.06,0005.95,0002.05
2024-05-23 00:56:00,SystemResetWarning,0822.1,5.01,000.00,031.7,030.9,000.0,039.9,033.3,007.7,0000.0,0003.10,0006.59,0002.06
2024-05-23 00:57:00,SystemResetWarning,0822.1,5.00,000.00,031.7,030.9,000.0,039.9,033.2,007.1,0000.0,0003.06,0006.35,0002.05
2024-05-23 00:58:00,SystemResetWarning,0822.1,4.99,000.00,031.7,030.9,000.0,039.9,033.3,007.5,0000.0,0003.08,0006.48,0002.04
2024-05-23 00:59:00,SystemResetWarning,0822.2,4.99,000.00,031.7,031.0,000.0,039.9,033.3,007.6,0000.0,0003.06,0006.44,0002.06
